Tracking 35048 objects as of 19-Aug-2026
HD Live streaming from Space Station
objects crossing your sky now

BRO-13

Track BRO-13 now!
10-day predictions
BRO-13 is classified as:


NORAD ID: 59107
Int'l Code: 2024-043K
Launch date: March 4, 2024
Source: France (FR)
Launch site: AIR FORCE WESTERN TEST RANGE (AFWTR)

Uplink (MHz):
Downlink (MHz): 401.735
Beacon (MHz):
Mode: 9k6 FSK
Call sign:
Status: Inactive

Your satellite tracking list
Your tracking list is empty




NASA's NSSDC Master Catalog

Two Line Element Set (TLE):
1 59107U 24043K   26230.93787609  .00000580  00000-0  56000-4 0  9995
2 59107  97.8575   2.1867 0009719 141.5038 218.6878 14.96720212134009
Source of the keplerian elements: AFSPC